Location: Arrakis Observatory
(44.1122°N, 95.7153°W)
Time: 22:28:39
(UTC-05:00)

Amateur Radio Satellites - All Passes

Search period start: 28 March 2017 21:58
Search period end: 29 March 2017 21:58
Location: Arrakis Observatory, 44.1122°N, 95.7153°W

Satellite Date Start Highest point End Downlink Frequencies (MHz)
Time Altitude Azimuth
AO-85 28 Mar 22:00:14 22:04:24 44° 309° (NW) 22:08:21 145.980
AAUSAT CUBESAT 2 28 Mar 22:02:41 22:05:09 15° 269° (W) 22:07:36 437.432
M-CUBED/EXP-1 PRIME 28 Mar 22:04:27 22:04:52 10° 309° (NW) 22:05:18 437.505
UWE-3 28 Mar 22:06:17 22:09:37 19° 268° (W) 22:12:57 435.000/436.395/437.385
LO-87 28 Mar 22:15:41 22:16:03 10° 62° (ENE) 22:16:25 145.935 - 145.965
STRAND 1 28 Mar 22:16:06 22:19:54 21° 298° (WNW) 22:23:42 437.568
Oscar 11 28 Mar 22:29:08 22:32:27 21° 267° (W) 22:35:46 .
ZACube-1 28 Mar 22:42:34 22:44:50 14° 270° (W) 22:47:06 437.345
BEESAT 3 28 Mar 22:50:26 22:54:20 75° 122° (ESE) 22:58:19 437.485
TIGRISAT 28 Mar 22:52:50 22:56:34 26° 95° (E) 23:00:11 435.000
DELFI C3 28 Mar 22:58:07 23:01:32 28° 264° (W) 23:04:57 145.870
UNISAT 6 28 Mar 23:03:33 23:07:39 37° 97° (E) 23:11:38 437.425
PRISM 28 Mar 23:03:56 23:08:07 73° 103° (ESE) 23:12:17 437.425
SO-50 28 Mar 23:08:07 23:12:29 46° 49° (NE) 23:16:48 436.795
Tancredo 1 28 Mar 23:08:11 23:10:47 23° 350° (N) 23:13:24 437.200
BEESAT 2 28 Mar 23:11:52 23:15:41 50° 120° (ESE) 23:19:35 435.950
ISS 28 Mar 23:19:47 23:22:29 23° 352° (N) 23:25:11 437.550
FO-29 28 Mar 23:20:02 23:25:21 34° 94° (E) 23:30:13 435.910
SPROUT 28 Mar 23:27:07 23:28:35 12° 60° (ENE) 23:30:03 437.525
ESTCUBE 1 28 Mar 23:34:07 23:38:24 47° 71° (ENE) 23:42:43 437.505/2401.250
LO-87 28 Mar 23:45:24 23:48:58 64° 259° (W) 23:52:36 145.935 - 145.965
RS-15 28 Mar 23:50:45 00:01:23 38° 255° (WSW) 00:11:39 29.354- 29.394
DX 1 29 Mar 00:05:48 00:08:16 15° 61° (ENE) 00:10:46 434.975-435.025
AIST 2D 29 Mar 00:16:19 00:19:25 29° 96° (E) 00:22:30 435.315
50 SAT 29 Mar 00:28:23 00:31:25 29° 70° (ENE) 00:34:28 437.505
TIGRISAT 29 Mar 00:29:24 00:33:14 30° 292° (WNW) 00:37:00 435.000
BEESAT 3 29 Mar 00:29:58 00:32:25 16° 322° (NW) 00:34:55 437.485
NANOSAT C BR1 29 Mar 00:31:25 00:34:53 24° 94° (E) 00:38:19 145.865
VELOX 1 29 Mar 00:35:08 00:39:29 66° 74° (ENE) 00:43:54 145.980
EO-79 29 Mar 00:37:29 00:41:14 30° 96° (E) 00:44:59 145.935-145.965
UKube-1 29 Mar 00:39:28 00:42:50 23° 65° (ENE) 00:46:14 .
UNISAT 6 29 Mar 00:40:43 00:44:08 22° 295° (WNW) 00:47:29 437.425
PRISM 29 Mar 00:41:16 00:42:49 12° 300° (WNW) 00:44:22 437.425
Tancredo 1 29 Mar 00:44:58 00:47:37 23° 10° (N) 00:50:16 437.200
SO-50 29 Mar 00:49:10 00:52:39 22° 247° (WSW) 00:56:07 436.795
BEESAT 2 29 Mar 00:50:41 00:53:43 20° 318° (NW) 00:56:48 435.950
ISS 29 Mar 00:56:52 00:59:40 25° 12° (NNE) 01:02:28 437.550
SPROUT 29 Mar 00:59:33 01:03:51 80° 257° (WSW) 01:08:12 437.525
FO-29 29 Mar 01:05:06 01:10:28 35° 296° (WNW) 01:15:21 435.910
POLYITAN 1 29 Mar 01:06:08 01:10:22 64° 102° (ESE) 01:14:32 437.675
QB50P2 29 Mar 01:10:53 01:15:09 78° 104° (ESE) 01:19:22 145.880/145.840
ESTCUBE 1 29 Mar 01:12:27 01:15:28 18° 268° (W) 01:18:30 437.505/2401.250
DUCHIFAT 1 29 Mar 01:18:56 01:23:09 73° 102° (ESE) 01:27:19 145.980
BUGSAT 1 29 Mar 01:24:38 01:28:14 28° 96° (E) 01:31:47 437.445
DX 1 29 Mar 01:39:41 01:43:58 61° 258° (WSW) 01:48:19 434.975-435.025
O/OREOS (USA 219) 29 Mar 01:41:55 01:45:09 18° 52° (NE) 01:48:22 437.305
Oscar 19 29 Mar 01:46:20 01:49:42 17° 91° (E) 01:53:03 437.125/150
BEESAT 29 Mar 01:47:46 01:49:21 12° 57° (ENE) 01:50:55 436.000
AIST 2D 29 Mar 01:50:03 01:52:27 18° 293° (WNW) 01:54:50 435.315
50 SAT 29 Mar 02:02:14 02:04:31 17° 267° (W) 02:06:50 437.505
ITUPSAT 1 29 Mar 02:04:17 02:07:12 16° 60° (ENE) 02:10:08 437.325
NANOSAT C BR1 29 Mar 02:06:52 02:10:37 31° 291° (WNW) 02:14:19 145.865
EO-79 29 Mar 02:13:24 02:16:53 25° 293° (WNW) 02:20:21 145.935-145.965
VELOX 1 29 Mar 02:14:27 02:16:24 13° 271° (W) 02:18:21 145.980
UKube-1 29 Mar 02:14:42 02:18:40 36° 262° (W) 02:22:40 .
Tancredo 1 29 Mar 02:20:56 02:24:08 73° 30° (NNE) 02:27:20 437.200
Gurwin Techsat 1B 29 Mar 02:21:45 02:25:48 22° 92° (E) 02:29:48 435.225
ISS 29 Mar 02:33:12 02:36:30 82° 29° (NNE) 02:39:48 437.550
POLYITAN 1 29 Mar 02:43:32 02:45:38 13° 299° (WNW) 02:47:42 437.675
QB50P2 29 Mar 02:48:57 02:50:19 11° 300° (WNW) 02:51:40 145.880/145.840
DUCHIFAT 1 29 Mar 02:56:38 02:58:14 12° 300° (WNW) 02:59:48 145.980
BUGSAT 1 29 Mar 03:00:01 03:03:32 27° 293° (WNW) 03:06:59 437.445
MOZHAYETS 4 29 Mar 03:15:01 03:19:01 30° 68° (ENE) 03:23:01
O/OREOS (USA 219) 29 Mar 03:20:24 03:24:57 58° 251° (WSW) 03:29:28 437.305
BEESAT 29 Mar 03:21:34 03:26:21 85° 76° (ENE) 03:31:10 436.000
Oscar 19 29 Mar 03:24:19 03:29:26 63° 288° (WNW) 03:34:33 437.125/150
ITAMSAT 1 29 Mar 03:39:08 03:42:40 18° 91° (E) 03:46:11 435.822/435.867
ITUPSAT 1 29 Mar 03:39:45 03:44:31 66° 258° (WSW) 03:49:18 437.325
AO-7 29 Mar 03:48:28 03:54:53 24° 92° (E) 04:01:14 .
Tancredo 1 29 Mar 03:57:56 03:59:54 15° 226° (SW) 04:01:53 437.200
Gurwin Techsat 1B 29 Mar 04:00:52 04:06:02 53° 290° (WNW) 04:11:11 435.225
ISS 29 Mar 04:10:44 04:12:35 14° 227° (SW) 04:14:24 437.550
KKS-1 29 Mar 04:12:57 04:16:45 28° 66° (ENE) 04:20:33 437.445
CUBESAT XI-V 29 Mar 04:15:10 04:18:42 22° 65° (ENE) 04:22:15 437.345
STARS 29 Mar 04:41:25 04:45:01 25° 66° (ENE) 04:48:38 437.465
AO-85 29 Mar 04:49:45 04:53:08 27° 45° (NE) 04:56:34 145.980
MOZHAYETS 4 29 Mar 04:52:08 04:56:08 29° 265° (W) 05:00:08
BEESAT 29 Mar 05:03:34 05:04:45 11° 272° (W) 05:05:56 436.000
ITAMSAT 1 29 Mar 05:17:24 05:22:32 60° 289° (WNW) 05:27:37 435.822/435.867
BEESAT 3 29 Mar 05:29:55 05:31:32 12° 34° (NE) 05:33:09 437.485
AO-7 29 Mar 05:40:08 05:48:26 78° 292° (WNW) 05:56:42 .
M-CUBED/EXP-1 PRIME 29 Mar 05:40:53 05:43:45 20° 58° (ENE) 05:46:48 437.505
KKS-1 29 Mar 05:49:14 05:53:12 31° 264° (W) 05:57:13 437.445
CUBESAT XI-V 29 Mar 05:51:30 05:55:50 41° 262° (W) 06:00:11 437.345
STARS 29 Mar 06:17:10 06:21:12 34° 262° (W) 06:25:16 437.465
STRAND 1 29 Mar 06:17:40 06:20:02 13° 57° (ENE) 06:22:23 437.568
AO-85 29 Mar 06:30:01 06:33:31 31° 243° (WSW) 06:37:07 145.980
XW-2F 29 Mar 06:37:06 06:39:06 14° 91° (E) 06:41:05 145.980 - 146.000
LilacSat-2 29 Mar 06:43:15 06:45:54 18° 93° (E) 06:48:32 437.200
DOVE 4 29 Mar 06:52:24 06:57:22 39° 96° (E) 07:02:12 437.250
NUDT-PHONESAT 29 Mar 06:53:23 06:55:56 18° 93° (E) 06:58:29 437.300
NO-84 29 Mar 06:59:15 07:02:07 66° 138° (SE) 07:04:56 435.350 FM
XW-2D 29 Mar 07:03:51 07:07:12 30° 96° (E) 07:10:32 145.860 - 145.880
KAITUO 1B 29 Mar 07:04:03 07:07:06 24° 95° (E) 07:10:07 145.475/437.950
BEESAT 3 29 Mar 07:05:51 07:09:53 70° 54° (NE) 07:13:52 437.485
XW-2B 29 Mar 07:09:48 07:13:15 34° 97° (E) 07:16:41 145.730 - 145.750
M-CUBED/EXP-1 PRIME 29 Mar 07:14:23 07:17:55 38° 258° (WSW) 07:21:46 437.505
XW-2C 29 Mar 07:20:00 07:23:37 46° 99° (E) 07:27:14 145.795 - 145.815
CUTE-I 29 Mar 07:27:49 07:33:01 50° 100° (E) 07:38:11 437.470
BEESAT 2 29 Mar 07:28:04 07:32:01 49° 51° (NE) 07:35:57 435.950
AO-7 29 Mar 07:34:21 07:39:57 21° 313° (NW) 07:45:34 .
YUBILEINY 29 Mar 07:38:57 07:47:07 47° 88° (E) 07:55:17 435.215
XW-2A 29 Mar 07:52:36 07:54:26 14° 92° (E) 07:56:17 145.665 - 145.685
STRAND 1 29 Mar 07:53:16 07:58:26 88° 75° (ENE) 08:03:37 437.568
XW-2F 29 Mar 08:09:55 08:13:28 42° 288° (WNW) 08:16:59 145.980 - 146.000
LilacSat-2 29 Mar 08:16:52 08:20:17 33° 289° (WNW) 08:23:40 437.200
HO-68 29 Mar 08:24:45 08:31:26 40° 98° (E) 08:38:03 435.675
NUDT-PHONESAT 29 Mar 08:26:39 08:29:57 31° 289° (WNW) 08:33:14 437.300
DOVE 4 29 Mar 08:30:17 08:34:52 30° 294° (WNW) 08:39:21 437.250
SEEDS 29 Mar 08:30:46 08:34:14 24° 94° (E) 08:37:42 437.485
NO-84 29 Mar 08:37:50 08:39:54 18° 338° (NNW) 08:41:59 435.350 FM
KAITUO 1B 29 Mar 08:38:02 08:41:03 24° 292° (WNW) 08:44:04 145.475/437.950
XW-2D 29 Mar 08:38:27 08:41:13 20° 293° (WNW) 08:43:58 145.860 - 145.880
CUTE 1.7 + AOD 2 29 Mar 08:42:57 08:47:04 50° 99° (E) 08:51:11 437.475
XW-2B 29 Mar 08:44:38 08:47:12 18° 294° (WNW) 08:49:46 145.730 - 145.750
BEESAT 3 29 Mar 08:45:24 08:46:55 12° 251° (WSW) 08:48:26 437.485
XW-2C 29 Mar 08:55:29 08:57:26 14° 296° (WNW) 08:59:23 145.795 - 145.815
CUBEBUG 2 29 Mar 08:56:56 09:00:54 33° 96° (E) 09:04:44 437.445
BEESAT 2 29 Mar 09:06:44 09:09:26 17° 249° (WSW) 09:12:08 435.950
CUTE-I 29 Mar 09:08:31 09:12:44 24° 298° (WNW) 09:16:57 437.470
AO-73 29 Mar 09:18:08 09:21:00 18° 92° (E) 09:23:49 145.935
XW-2A 29 Mar 09:24:16 09:27:21 33° 289° (WNW) 09:30:24 145.665 - 145.685
FO-29 29 Mar 09:32:52 09:38:48 26° 60° (ENE) 09:44:24 435.910
YUBILEINY 29 Mar 09:35:52 09:44:00 42° 289° (WNW) 09:52:09 435.215
STRAND 1 29 Mar 09:36:29 09:38:17 12° 272° (W) 09:40:05 437.568
AAUSAT CUBESAT 2 29 Mar 09:41:03 09:45:13 73° 101° (E) 09:49:22 437.432
PCSat 29 Mar 09:46:43 09:52:01 59° 116° (ESE) 09:57:21 145.827
TIGRISAT 29 Mar 09:52:26 09:56:30 30° 68° (ENE) 10:00:32 435.000
UWE-3 29 Mar 09:52:55 09:57:14 82° 103° (ESE) 10:01:25 435.000/436.395/437.385
PRISM 29 Mar 09:54:18 09:58:19 62° 73° (ENE) 10:02:23 437.425
UNISAT 6 29 Mar 10:03:11 10:07:34 41° 70° (ENE) 10:11:55 437.425
SEEDS 29 Mar 10:06:15 10:09:56 30° 291° (WNW) 10:13:36 437.485
HO-68 29 Mar 10:12:30 10:19:10 44° 296° (WNW) 10:25:51 435.675
Oscar 11 29 Mar 10:13:25 10:17:42 62° 101° (E) 10:21:57 .
NO-84 29 Mar 10:17:56 10:18:24 10° 0° (N) 10:18:54 435.350 FM
CUTE 1.7 + AOD 2 29 Mar 10:19:54 10:22:31 16° 296° (WNW) 10:25:08 437.475
ZACube-1 29 Mar 10:26:43 10:30:56 73° 286° (WNW) 10:35:04 437.345
DELFI C3 29 Mar 10:33:12 10:36:45 30° 96° (E) 10:40:17 145.870
CUBEBUG 2 29 Mar 10:33:49 10:37:22 24° 294° (WNW) 10:40:48 437.445
AIST 2D 29 Mar 10:53:06 10:55:11 15° 66° (ENE) 10:57:15 435.315
AO-73 29 Mar 10:53:29 10:57:27 40° 289° (WNW) 11:01:19 145.935
FO-29 29 Mar 11:15:27 11:23:14 76° 257° (WSW) 11:30:28 435.910
AAUSAT CUBESAT 2 29 Mar 11:18:38 11:20:06 12° 299° (WNW) 11:21:35 437.432
NANOSAT C BR1 29 Mar 11:24:55 11:28:16 23° 66° (ENE) 11:31:38 145.865
TIGRISAT 29 Mar 11:28:58 11:33:07 31° 264° (W) 11:37:14 435.000
EO-79 29 Mar 11:31:09 11:34:49 28° 68° (ENE) 11:38:30 145.935-145.965
PCSat 29 Mar 11:31:17 11:35:47 26° 316° (NW) 11:40:20 145.827
UWE-3 29 Mar 11:31:58 11:32:59 11° 301° (WNW) 11:34:01 435.000/436.395/437.385
PRISM 29 Mar 11:32:34 11:34:01 12° 270° (W) 11:35:28 437.425
UNISAT 6 29 Mar 11:40:44 11:44:24 22° 267° (W) 11:48:03 437.425
Oscar 11 29 Mar 11:51:02 11:53:20 14° 298° (WNW) 11:55:38 .
NO-84 29 Mar 11:54:43 11:56:55 18° 22° (NNE) 11:59:13 435.350 FM
POLYITAN 1 29 Mar 11:59:39 12:03:51 57° 73° (ENE) 12:08:04 437.675
RS-15 29 Mar 12:02:45 12:13:16 38° 106° (ESE) 12:24:04 29.354- 29.394
QB50P2 29 Mar 12:04:23 12:08:38 69° 75° (ENE) 12:12:55 145.880/145.840
DELFI C3 29 Mar 12:08:14 12:11:24 23° 293° (WNW) 12:14:32 145.870
DUCHIFAT 1 29 Mar 12:11:37 12:15:50 64° 74° (ENE) 12:20:03 145.980
BUGSAT 1 29 Mar 12:15:37 12:19:04 25° 67° (ENE) 12:22:34 437.445
AIST 2D 29 Mar 12:24:50 12:28:07 36° 262° (W) 12:31:25 435.315
VELOX 1 29 Mar 12:25:59 12:27:18 11° 89° (E) 12:28:37 145.980
LO-87 29 Mar 12:44:16 12:47:54 62° 285° (WNW) 12:51:29 145.935 - 145.965
SPROUT 29 Mar 12:44:59 12:47:35 16° 91° (E) 12:50:10 437.525
NANOSAT C BR1 29 Mar 12:59:53 13:03:47 35° 263° (W) 13:07:43 145.865
ESTCUBE 1 29 Mar 13:01:21 13:05:53 86° 103° (ESE) 13:10:25 437.505/2401.250
Oscar 19 29 Mar 13:04:17 13:08:40 30° 65° (ENE) 13:13:05 437.125/150
AO-7 29 Mar 13:04:33 13:05:53 10° 36° (NE) 13:07:13 .
FO-29 29 Mar 13:05:04 13:09:08 15° 274° (W) 13:13:05 435.910
EO-79 29 Mar 13:06:52 13:10:32 27° 265° (W) 13:14:13 145.935-145.965
50 SAT 29 Mar 13:23:50 13:26:50 26° 96° (E) 13:29:48 437.505
DX 1 29 Mar 13:26:55 13:30:12 20° 93° (E) 13:33:29 434.975-435.025
NO-84 29 Mar 13:31:39 13:34:44 78° 221° (SW) 13:38:04 435.350 FM
POLYITAN 1 29 Mar 13:37:45 13:39:59 14° 270° (W) 13:42:13 437.675
QB50P2 29 Mar 13:43:30 13:44:53 11° 271° (W) 13:46:16 145.880/145.840
Gurwin Techsat 1B 29 Mar 13:43:58 13:48:53 40° 68° (ENE) 13:53:50 435.225
DUCHIFAT 1 29 Mar 13:50:09 13:51:55 12° 270° (W) 13:53:40 145.980
BUGSAT 1 29 Mar 13:50:30 13:54:17 31° 263° (W) 13:58:07 437.445
VELOX 1 29 Mar 13:59:48 14:04:16 76° 287° (WNW) 14:08:43 145.980
UKube-1 29 Mar 13:59:56 14:03:49 31° 97° (E) 14:07:41 .
RS-15 29 Mar 14:12:52 14:24:57 72° 309° (NW) 14:37:23 29.354- 29.394
SPROUT 29 Mar 14:19:38 14:23:47 49° 288° (WNW) 14:27:54 437.525
ESTCUBE 1 29 Mar 14:40:29 14:42:00 12° 301° (WNW) 14:43:32 437.505/2401.250
Oscar 19 29 Mar 14:43:09 14:47:51 37° 263° (W) 14:52:37 437.125/150
AO-7 29 Mar 14:48:50 14:56:23 41° 59° (ENE) 15:03:56 .
50 SAT 29 Mar 14:57:05 14:59:44 20° 293° (WNW) 15:02:22 437.505
ITAMSAT 1 29 Mar 14:58:04 15:02:43 34° 66° (ENE) 15:07:23 435.822/435.867
DX 1 29 Mar 15:02:25 15:06:33 40° 290° (WNW) 15:10:38 434.975-435.025
SO-50 29 Mar 15:03:21 15:08:00 80° 123° (ESE) 15:12:37 436.795
BEESAT 29 Mar 15:21:03 15:24:25 19° 92° (E) 15:27:46 436.000
Gurwin Techsat 1B 29 Mar 15:24:22 15:28:55 29° 265° (W) 15:33:30 435.225
UKube-1 29 Mar 15:36:08 15:39:44 26° 294° (WNW) 15:43:18 .
ITUPSAT 1 29 Mar 15:39:01 15:43:07 28° 95° (E) 15:47:10 437.325
O/OREOS (USA 219) 29 Mar 15:57:24 15:59:33 13° 98° (E) 16:01:44 437.305
RS-15 29 Mar 16:29:25 16:40:08 33° 339° (NNW) 16:50:57 29.354- 29.394
ITAMSAT 1 29 Mar 16:37:27 16:42:08 33° 263° (W) 16:46:52 435.822/435.867
AO-7 29 Mar 16:40:54 16:48:57 52° 258° (WSW) 16:57:02 .
MOZHAYETS 4 29 Mar 16:44:43 16:49:14 57° 100° (E) 16:53:42
SO-50 29 Mar 16:45:46 16:49:00 19° 323° (NW) 16:52:15 436.795
PCSat 29 Mar 16:50:54 16:53:58 15° 35° (NE) 16:57:02 145.827
BEESAT 29 Mar 16:57:52 17:02:28 49° 289° (WNW) 17:07:02 436.000
CUTE-I 29 Mar 17:14:14 17:17:06 15° 57° (ENE) 17:19:59 437.470
ITUPSAT 1 29 Mar 17:16:40 17:20:57 34° 293° (WNW) 17:25:13 437.325
LilacSat-2 29 Mar 17:27:45 17:29:24 12° 63° (ENE) 17:31:02 437.200
O/OREOS (USA 219) 29 Mar 17:33:51 17:38:21 66° 296° (WNW) 17:42:56 437.305
NUDT-PHONESAT 29 Mar 17:35:43 17:36:58 11° 63° (ENE) 17:38:14 437.300
KKS-1 29 Mar 17:38:01 17:42:18 43° 99° (E) 17:46:33 437.445
CUBESAT XI-V 29 Mar 17:46:03 17:50:29 42° 98° (E) 17:54:56 437.345
KAITUO 1B 29 Mar 17:46:24 17:48:36 15° 65° (ENE) 17:50:49 145.475/437.950
XW-2D 29 Mar 17:46:59 17:49:46 20° 67° (ENE) 17:52:32 145.860 - 145.880
YUBILEINY 29 Mar 17:47:16 17:54:08 25° 63° (ENE) 18:00:59 435.215
XW-2B 29 Mar 17:52:48 17:55:45 22° 68° (ENE) 17:58:43 145.730 - 145.750
DOVE 4 29 Mar 17:58:51 18:03:22 42° 70° (ENE) 18:08:09 437.250
XW-2C 29 Mar 18:02:46 18:06:03 28° 70° (ENE) 18:09:20 145.795 - 145.815
STARS 29 Mar 18:04:36 18:08:42 36° 98° (E) 18:12:45 437.465
MOZHAYETS 4 29 Mar 18:23:03 18:25:56 17° 298° (WNW) 18:28:49
PCSat 29 Mar 18:33:01 18:38:27 65° 56° (NE) 18:43:50 145.827
RS-15 29 Mar 18:47:09 18:57:39 30° 14° (NNE) 19:07:56 29.354- 29.394
CUTE-I 29 Mar 18:51:00 18:56:24 88° 256° (WSW) 19:01:49 437.470
XW-2F 29 Mar 18:51:38 18:55:24 76° 257° (WSW) 18:59:12 145.980 - 146.000
M-CUBED/EXP-1 PRIME 29 Mar 18:52:20 18:54:44 14° 95° (E) 18:57:06 437.505
HO-68 29 Mar 18:55:11 19:01:30 35° 61° (ENE) 19:07:49 435.675
LilacSat-2 29 Mar 18:59:28 19:03:14 55° 260° (W) 19:06:59 437.200
NUDT-PHONESAT 29 Mar 19:06:43 19:10:25 59° 260° (W) 19:14:06 437.300
KKS-1 29 Mar 19:15:13 19:18:34 21° 296° (WNW) 19:21:54 437.445
ISS 29 Mar 19:16:44 19:17:14 10° 130° (SE) 19:17:43 437.550
KAITUO 1B 29 Mar 19:18:45 19:22:18 41° 262° (W) 19:25:51 145.475/437.950
XW-2D 29 Mar 19:20:20 19:23:46 31° 263° (W) 19:27:11 145.860 - 145.880
CUBESAT XI-V 29 Mar 19:24:01 19:27:36 22° 295° (WNW) 19:31:11 437.345
SEEDS 29 Mar 19:24:08 19:27:16 21° 66° (ENE) 19:30:24 437.485
XW-2B 29 Mar 19:26:31 19:29:49 28° 264° (W) 19:33:08 145.730 - 145.750
CUTE 1.7 + AOD 2 29 Mar 19:36:48 19:40:46 42° 72° (ENE) 19:44:44 437.475
XW-2C 29 Mar 19:37:18 19:40:15 21° 266° (W) 19:43:13 145.795 - 145.815
DOVE 4 29 Mar 19:37:23 19:41:14 24° 268° (W) 19:45:17 437.250
STARS 29 Mar 19:41:19 19:44:51 24° 295° (WNW) 19:48:21 437.465
YUBILEINY 29 Mar 19:43:13 19:51:55 78° 265° (W) 20:00:37 435.215
ZACube-1 29 Mar 19:50:16 19:52:00 12° 61° (ENE) 19:53:43 437.345
CUBEBUG 2 29 Mar 19:55:44 20:00:02 35° 69° (ENE) 20:04:17 437.445
XW-2A 29 Mar 19:56:18 19:59:44 87° 257° (WSW) 20:03:12 145.665 - 145.685
STRAND 1 29 Mar 20:02:46 20:07:04 26° 94° (E) 20:11:19 437.568
AO-73 29 Mar 20:14:53 20:18:03 19° 65° (ENE) 20:21:11 145.935
PCSat 29 Mar 20:17:31 20:21:19 20° 254° (WSW) 20:25:06 145.827
M-CUBED/EXP-1 PRIME 29 Mar 20:24:55 20:29:35 73° 291° (WNW) 20:34:13 437.505
AAUSAT CUBESAT 2 29 Mar 20:32:14 20:36:15 55° 73° (ENE) 20:40:17 437.432
Tancredo 1 29 Mar 20:33:40 20:36:46 61° 145° (SE) 20:39:53 437.200
CUTE-I 29 Mar 20:35:17 20:37:11 12° 273° (W) 20:39:05 437.470
HO-68 29 Mar 20:42:06 20:48:59 50° 260° (W) 20:55:56 435.675
AO-85 29 Mar 20:45:03 20:49:19 50° 120° (ESE) 20:53:20 145.980
ISS 29 Mar 20:49:56 20:53:10 77° 146° (SE) 20:56:26 437.550
UWE-3 29 Mar 20:50:26 20:55:04 78° 76° (ENE) 20:59:39 435.000/436.395/437.385
SEEDS 29 Mar 20:58:55 21:02:44 35° 263° (W) 21:06:35 437.485
RS-15 29 Mar 21:01:14 21:13:28 60° 45° (NE) 21:25:10 29.354- 29.394
Oscar 11 29 Mar 21:09:15 21:13:28 56° 73° (ENE) 21:17:42 .
CUTE 1.7 + AOD 2 29 Mar 21:13:57 21:16:48 18° 268° (W) 21:19:39 437.475
DELFI C3 29 Mar 21:20:25 21:23:26 22° 67° (ENE) 21:26:29 145.870
ZACube-1 29 Mar 21:23:08 21:27:39 81° 256° (WSW) 21:32:08 437.345
CUBEBUG 2 29 Mar 21:32:40 21:36:40 27° 266° (W) 21:40:39 437.445
STRAND 1 29 Mar 21:41:35 21:46:21 40° 292° (WNW) 21:51:05 437.568
YUBILEINY 29 Mar 21:42:36 21:47:10 16° 286° (WNW) 21:51:45 435.215
AO-73 29 Mar 21:49:37 21:53:57 47° 261° (W) 21:58:15 145.935
